Waarnemingen

Advertentie
Mijn weer
Blois, Frankrijk (7245): temperatuur & dauwpunt: 19.02.2018 00:00:00 - 25.02.2018 00:00:00 (CET)Blois, Frankrijk (7245): temperatuur 5cm: 19.02.2018 00:00:00 - 25.02.2018 00:00:00 (CET)Blois, Frankrijk (7245): temperatuur -20cm & temperatuur -100cm: 19.02.2018 00:00:00 - 25.02.2018 00:00:00 (CET)Blois, Frankrijk (7245): windsnelheid & windstoten: 19.02.2018 00:00:00 - 25.02.2018 00:00:00 (CET)Blois, Frankrijk (7245): windrichting: 19.02.2018 00:00:00 - 25.02.2018 00:00:00 (CET)Blois, Frankrijk (7245): luchtdruk: 19.02.2018 00:00:00 - 25.02.2018 00:00:00 (CET)Blois, Frankrijk (7245): zicht: 19.02.2018 00:00:00 - 25.02.2018 00:00:00 (CET)Blois, Frankrijk (7245): Zonneschijnduur: 19.02.2018 00:00:00 - 25.02.2018 00:00:00 (CET)Blois, Frankrijk (7245): neerslag: 19.02.2018 00:00:00 - 25.02.2018 00:00:00 (CET)
Datum & Tijd tt [°C] td [°C] tt 5cm [°C] tt -20cm [°C] tt -100cm [°C] ff [km/u] ff [kn] fx [km/u] fx [kn] dd ppp [hPa] vv [km] sd [min] rr [mm]
25.02.2018 00:00:00 0,8 -6,8 -0,6 3,9 6,8 15 8 31 17 NO 1016,2 20 0 0,0
24.02.2018 23:00:00 1,2 -6,2 -1,1 4,0 6,8 17 9 30 16 NO 1015,9 20 0 0,0
24.02.2018 22:00:00 0,4 -4,1 -1,5 4,0 6,8 13 7 21 11 NNO 1015,7 10 0 0,0
24.02.2018 21:00:00 0,4 -3,9 -1,4 4,1 6,8 10 5 15 8 NNO 1015,8 9 0 0,0
24.02.2018 20:00:00 1,2 -3,7 -0,7 4,0 6,8 9 5 16 9 NO 1015,7 10 0 0,0
24.02.2018 19:00:00 1,9 -3,4 0,6 4,0 6,8 11 6 26 14 ONO 1015,5 10 7 0,0
24.02.2018 18:00:00 3,1 -3,3 2,6 3,9 6,8 16 8 36 19 NO 1015,0 11 45 0,0
24.02.2018 17:00:00 3,8 -3,3 4,6 3,9 6,8 22 12 38 21 NO 1014,5 12 60 0,0
24.02.2018 16:00:00 4,2 -3,1 7,0 3,7 6,8 20 11 39 21 NO 1013,9 11 60 0,0
24.02.2018 15:00:00 4,0 -3,1 7,1 3,6 6,8 19 10 36 20 NO 1013,9 12 58 0,0
24.02.2018 14:00:00 3,5 -3,8 7,5 3,5 6,8 18 10 38 20 NO 1014,1 11 60 0,0
24.02.2018 13:00:00 3,0 -3,6 6,2 3,4 6,8 17 9 29 16 NO 1014,3 13 60 0,0
24.02.2018 12:00:00 1,6 -5,1 5,3 3,4 6,8 16 9 27 15 NO 1014,5 13 60 0,0
24.02.2018 11:00:00 0,5 -5,5 2,5 3,5 6,9 18 10 32 17 NO 1014,5 14 60 0,0
24.02.2018 10:00:00 -0,4 -5,8 -0,1 3,5 6,8 16 9 31 17 ONO 1014,6 14 60 0,0
24.02.2018 09:00:00 -1,4 -6,2 -2,6 3,5 6,8 15 8 29 16 NO 1014,6 14 47 0,0
24.02.2018 08:00:00 -1,9 -5,9 -2,8 3,6 6,8 13 7 26 14 NO 1014,7 13 0 0,0
24.02.2018 07:00:00 -1,4 -5,4 -2,4 3,6 6,8 14 8 29 15 NO 1014,1 13 0 0,0
24.02.2018 06:00:00 -0,6 -4,7 -1,2 3,7 6,8 11 6 25 14 NO 1013,7 13 0 0,0
24.02.2018 05:00:00 -0,4 -4,5 -0,8 3,7 6,8 14 8 30 16 NO 1013,6 13 0 0,0
24.02.2018 04:00:00 -0,4 -4,5 -1,2 3,8 6,8 15 8 31 17 NO 1013,4 13 0 0,0
24.02.2018 03:00:00 0,0 -4,1 -0,6 3,8 6,9 16 9 29 16 NO 1013,4 13 0 0,0
24.02.2018 02:00:00 0,4 -4,3 -0,2 3,9 6,9 17 9 30 16 NO 1013,3 14 0 0,0
24.02.2018 01:00:00 0,3 -4,3 -0,4 3,9 6,9 15 8 27 15 NO 1013,3 15 0 0,0
24.02.2018 00:00:00 0,4 -4,3 -0,4 4,0 6,9 14 7 29 15 ONO 1013,5 17 0 0,0
23.02.2018 23:00:00 0,4 -4,3 -0,6 4,0 6,9 10 5 20 11 NO 1013,8 19 0 0,0
23.02.2018 22:00:00 0,9 -3,8 0,1 4,0 6,9 11 6 19 10 NNO 1014,0 17 0 0,0
23.02.2018 21:00:00 1,5 -4,2 0,8 4,0 6,9 10 5 19 10 NNO 1014,2 17 0 0,0
23.02.2018 20:00:00 1,5 -4,2 1,0 4,0 6,9 10 5 27 14 ONO 1014,4 17 0 0,0
23.02.2018 19:00:00 1,7 -4,2 1,3 4,0 6,9 16 8 32 17 O 1014,1 18 0 0,0
23.02.2018 18:00:00 1,9 -4,4 1,7 4,0 6,9 19 11 38 21 O 1013,6 19 0 0,0
23.02.2018 17:00:00 2,3 -4,2 2,7 3,9 6,9 22 12 38 20 O 1013,3 19 1 0,0
23.02.2018 16:00:00 3,0 -4,5 3,8 3,8 6,9 22 12 38 20 NO 1013,4 19 17 0,0
23.02.2018 15:00:00 3,2 -4,3 4,8 3,7 6,9 19 10 42 23 NNO 1013,6 20 45 0,0
23.02.2018 14:00:00 2,9 -4,3 5,2 3,6 6,9 17 9 36 19 NO 1013,9 19 56 0,0
23.02.2018 13:00:00 2,4 -4,6 4,4 3,6 6,9 17 9 37 20 NO 1014,5 19 56 0,0
23.02.2018 12:00:00 0,9 -6,0 3,7 3,6 6,9 19 11 40 22 NO 1015,1 16 60 0,0
23.02.2018 11:00:00 0,2 -5,8 2,0 3,7 6,9 22 12 42 23 ONO 1015,2 20 60 0,0
23.02.2018 10:00:00 -0,7 -6,3 0,1 3,7 6,9 23 12 45 24 NO 1015,5 20 60 0,0
23.02.2018 09:00:00 -1,2 -6,2 -2,7 3,8 6,9 16 8 32 17 NO 1015,5 20 44 0,0
23.02.2018 08:00:00 -1,8 -6,2 -2,8 3,9 6,9 16 9 33 18 NO 1015,3 20 0 0,0
23.02.2018 07:00:00 -1,7 -6,1 -2,8 3,9 6,9 19 11 34 19 NNO 1015,2 20 0 0,0
23.02.2018 06:00:00 -1,5 -5,7 -2,6 4,0 6,9 18 10 31 17 NNO 1015,3 20 0 0,0
23.02.2018 05:00:00 -1,3 -5,5 -2,5 4,1 6,9 15 8 30 16 NNO 1015,1 20 0 0,0
23.02.2018 04:00:00 -1,1 -5,1 -2,5 4,2 6,9 17 9 29 16 NNO 1015,3 19 0 0,0
23.02.2018 03:00:00 -1,0 -4,7 -2,3 4,3 6,9 13 7 26 14 NNO 1015,7 19 0 0,0
23.02.2018 02:00:00 -0,7 -4,4 -1,8 4,3 6,9 18 10 27 15 NNO 1015,9 19 0 0,0
23.02.2018 01:00:00 -0,1 -4,5 -1,6 4,4 6,9 17 9 28 15 NNO 1016,1 20 0 0,0
23.02.2018 00:00:00 -0,2 -4,1 -1,5 4,5 6,9 14 8 27 15 NNO 1016,3 20 0 0,0
22.02.2018 23:00:00 0,2 -3,7 -1,2 4,6 6,9 17 9 29 16 NNO 1016,5 18 0 0,0
22.02.2018 22:00:00 0,2 -3,5 -1,2 4,6 6,9 16 9 26 14 NNO 1016,6 15 0 0,0
22.02.2018 21:00:00 0,7 -3,4 -0,9 4,7 6,9 16 9 27 15 NNO 1016,8 15 0 0,0
22.02.2018 20:00:00 0,9 -3,2 -0,4 4,7 6,9 16 9 26 14 NNO 1016,8 13 0 0,0
22.02.2018 19:00:00 1,9 -3,6 0,5 4,7 6,9 16 9 36 19 NNO 1016,6 16 1 0,0
22.02.2018 18:00:00 3,2 -4,1 2,5 4,7 6,9 26 14 44 24 NNO 1015,9 15 60 0,0
22.02.2018 17:00:00 4,2 -4,1 5,2 4,6 6,9 22 12 44 24 NO 1015,8 14 60 0,0
22.02.2018 16:00:00 4,3 -3,7 6,4 4,5 6,9 22 12 48 26 NO 1015,8 11 60 0,0
22.02.2018 15:00:00 4,4 -1,6 5,6 4,5 6,9 25 13 42 23 NNO 1016,1 9 55 0,0
22.02.2018 14:00:00 3,1 -2,0 5,6 4,4 6,9 26 14 39 21 NNO 1016,7 7 51 0,0
22.02.2018 13:00:00 2,4 -2,1 1,9 4,4 6,9 22 12 40 22 NNO 1017,2 6 51 0,0
22.02.2018 12:00:00 0,5 -3,2 2,1 4,4 6,9 24 13 45 24 NNO 1017,8 5 41 0,0
22.02.2018 11:00:00 0,9 -3,0 2,4 4,5 6,9 19 10 39 21 NNO 1017,9 5 60 0,0
22.02.2018 10:00:00 0,1 -3,1 0,1 4,5 6,8 17 9 34 19 NNO 1018,4 4,3 60 0,0
22.02.2018 09:00:00 -0,8 -3,3 -2,3 4,6 6,8 16 9 29 15 NNO 1018,5 3,4 42 0,0
22.02.2018 08:00:00 -1,4 -3,4 -2,5 4,7 6,9 14 8 31 17 NNO 1018,2 3,2 0 0,0
22.02.2018 07:00:00 -1,2 -3,2 -2,1 4,8 6,8 19 11 32 17 NNO 1018,1 3,1 0 0,0
22.02.2018 06:00:00 -1,0 -3,2 -1,9 5,0 6,8 20 11 35 19 NNO 1018,0 3,2 0 0,0
22.02.2018 05:00:00 -0,8 -3,0 -1,7 5,1 6,8 22 12 37 20 NNO 1018,0 3,4 0 0,0
22.02.2018 04:00:00 -0,6 -2,8 -1,5 5,1 6,8 18 10 31 17 NNO 1018,4 3,1 0 0,0
22.02.2018 03:00:00 -0,2 -2,4 -1,2 5,3 6,8 18 10 34 18 NNO 1018,8 3,1 0 0,0
22.02.2018 02:00:00 -0,1 -2,2 -1,0 5,4 6,8 21 11 34 18 NNO 1019,3 2,9 0 0,0
22.02.2018 01:00:00 0,2 -1,9 -0,7 5,5 6,8 21 11 34 19 NNO 1019,7 3,0 0 0,0
22.02.2018 00:00:00 0,4 -1,7 -0,5 5,6 6,8 23 12 37 20 NNO 1020,0 3,2 0 0,0
21.02.2018 23:00:00 0,5 -1,7 -0,4 5,7 6,8 22 12 36 20 NNO 1020,3 3,4 0 0,0
21.02.2018 22:00:00 0,9 -1,7 -0,2 5,8 6,8 19 11 37 20 NNO 1020,3 3,8 0 0,0
21.02.2018 21:00:00 1,2 -1,5 0,3 5,9 6,8 22 12 34 19 NNO 1020,5 4,0 0 0,0
21.02.2018 20:00:00 1,9 -1,4 0,8 5,9 6,8 18 10 40 22 NNO 1020,4 4,6 0 0,0
21.02.2018 19:00:00 2,5 -1,3 1,4 6,0 6,8 23 12 40 22 NNO 1020,4 5 2 0,0
21.02.2018 18:00:00 3,5 -0,9 2,9 6,0 6,8 27 15 42 23 NNO 1020,0 6 60 0,0
21.02.2018 17:00:00 4,1 -1,3 4,0 5,9 6,8 27 15 42 23 NNO 1019,8 7 31 0,0
21.02.2018 16:00:00 4,6 -1,0 5,0 5,9 6,8 26 14 43 23 NNO 1020,1 8 20 0,0
21.02.2018 15:00:00 4,4 -1,2 5,3 5,8 6,8 24 13 42 23 NNO 1020,5 8 28 0,0
21.02.2018 14:00:00 3,9 -1,9 4,6 5,8 6,8 26 14 44 24 NNO 1021,3 9 31 0,0
21.02.2018 13:00:00 4,1 -0,7 5,4 5,8 6,8 19 10 35 19 NO 1021,7 7 39 0,0
21.02.2018 12:00:00 3,1 -0,9 5,2 5,8 6,8 19 10 40 22 NO 1022,0 5 56 0,0
21.02.2018 11:00:00 2,1 -0,8 3,2 5,9 6,8 19 11 40 22 NO 1022,0 3,9 53 0,0
21.02.2018 10:00:00 1,4 -0,7 1,1 6,0 6,8 21 11 36 19 NNO 1021,9 3,0 60 0,0
21.02.2018 09:00:00 0,8 -0,8 -0,3 6,1 6,8 19 10 31 17 NNO 1021,7 2,7 24 0,0
21.02.2018 08:00:00 0,6 -0,7 -0,4 6,2 6,7 19 11 37 20 NNO 1021,5 2,5 0 0,0
21.02.2018 07:00:00 1,1 -0,1 0,1 6,3 6,8 20 11 34 18 NNO 1021,0 2,6 0 0,0
21.02.2018 06:00:00 1,4 0,2 0,4 6,4 6,8 19 10 30 16 NNO 1020,7 3,1 0 0,0
21.02.2018 05:00:00 1,7 0,5 0,6 6,5 6,8 17 9 27 15 NNO 1020,4 4,0 0 0,0
21.02.2018 04:00:00 1,9 0,7 0,7 6,6 6,8 13 7 22 12 N 1020,6 6 0 0,0
21.02.2018 03:00:00 2,4 0,8 0,9 6,7 6,8 10 6 24 13 N 1020,4 11 0 0,0
21.02.2018 02:00:00 3,3 1,3 2,2 6,7 6,8 14 8 22 12 NNO 1020,5 14 0 0,0
21.02.2018 01:00:00 3,6 2,1 3,1 6,8 6,8 11 6 26 14 NNO 1020,1 11 0 0,0
21.02.2018 00:00:00 3,9 2,6 3,3 6,9 6,8 16 9 25 13 NNO 1019,8 10 0 0,0
20.02.2018 23:00:00 3,9 2,3 3,0 6,9 6,8 14 8 27 15 NNO 1019,3 17 0 0,0
20.02.2018 22:00:00 4,4 2,7 3,8 6,9 6,8 16 9 38 20 NO 1018,7 12 0 1,0
20.02.2018 21:00:00 5,7 5,0 5,5 6,9 6,9 10 6 21 12 NO 1018,0 5 0 2,1
20.02.2018 20:00:00 6,2 5,5 6,0 6,9 6,8 10 5 18 10 NO 1017,3 5 0 2,2
20.02.2018 19:00:00 6,5 5,8 6,2 6,9 6,8 3 2 9 5 NNO 1017,0 3,7 0 1,8
20.02.2018 18:00:00 6,7 5,8 6,7 6,8 6,8 5 3 13 7 NNO 1017,2 4,9 0 0,4
20.02.2018 17:00:00 7,2 5,5 7,2 6,8 6,8 9 5 19 10 N 1017,2 8 0 0,0
20.02.2018 16:00:00 7,5 5,3 7,8 6,7 6,8 11 6 21 11 N 1017,3 20 1 0,0
20.02.2018 15:00:00 7,6 5,4 7,3 6,6 6,8 12 7 19 10 N 1017,8 20 0 0,0
20.02.2018 14:00:00 6,9 4,7 7,2 6,6 6,8 10 6 21 11 N 1018,0 20 0 0,0
20.02.2018 13:00:00 6,8 4,9 7,0 6,5 6,8 10 6 18 10 NNO 1017,9 20 0 0,0
20.02.2018 12:00:00 6,2 4,5 6,6 6,5 6,8 11 6 23 12 NO 1018,0 20 0 0,0
20.02.2018 11:00:00 6,6 5,1 6,8 6,4 6,8 16 9 28 15 NNO 1017,3 20 0 0,0
20.02.2018 10:00:00 6,8 5,9 6,9 6,4 6,8 12 7 26 14 NNO 1016,8 8 0 0,0
20.02.2018 09:00:00 7,5 6,8 7,3 6,4 6,8 14 7 27 14 NNO 1016,3 6 0 0,4
20.02.2018 08:00:00 8,8 8,0 8,2 6,4 6,8 15 8 23 13 NNW 1015,3 2,6 0 0,2
20.02.2018 07:00:00 8,8 7,9 8,2 6,3 6,8 13 7 26 14 NW 1014,8 8 0 0,0
20.02.2018 06:00:00 8,8 8,0 8,3 6,3 6,8 13 7 21 11 NW 1014,7 12 0 0,0
20.02.2018 05:00:00 8,9 8,3 8,4 6,3 6,8 13 7 24 13 NW 1014,7 3,5 0 0,2
20.02.2018 04:00:00 9,0 8,2 8,4 6,2 6,8 13 7 22 12 NW 1014,6 8 0 0,0
20.02.2018 03:00:00 8,8 8,2 8,2 6,2 6,8 16 8 22 12 NW 1014,7 3,2 0 0,2
20.02.2018 02:00:00 8,5 8,1 7,9 6,2 6,7 16 9 23 12 WNW 1014,8 4,4 0 0,0
20.02.2018 01:00:00 8,2 7,8 7,5 6,2 6,8 16 9 21 12 WNW 1015,2 2,1 0 0,0
20.02.2018 00:00:00 7,8 7,4 7,0 6,2 6,7 12 7 17 9 W 1015,5 2,7 0 0,4
19.02.2018 23:00:00 7,1 6,7 6,8 6,1 6,7 11 6 16 9 WZW 1015,8 2,1 0 0,2
19.02.2018 22:00:00 7,0 6,6 6,7 6,1 6,7 6 4 10 5 ZW 1016,4 1,7 0 0,6
19.02.2018 21:00:00 6,9 6,5 6,7 6,1 6,8 8 4 9 5 ZW 1016,8 1,5 0 0,2
19.02.2018 20:00:00 6,9 6,3 6,7 6,1 6,7 6 3 7 4 ZW 1017,2 1,5 0 0,2
19.02.2018 19:00:00 7,0 6,3 6,7 6,0 6,8 4 2 7 4 W 1017,6 2,5 0 0,2
19.02.2018 18:00:00 7,4 6,3 7,1 5,9 6,7 3 2 7 4 WZW 1017,6 8 0 0,2
19.02.2018 17:00:00 7,5 6,1 7,2 5,9 6,7 6 3 10 5 W 1017,9 20 0 0,2
19.02.2018 16:00:00 7,4 6,0 7,5 5,7 6,7 5 3 11 6 ZW 1018,0 14 0 0,0
19.02.2018 15:00:00 7,6 5,4 7,7 5,6 6,7 7 4 13 7 ZW 1018,4 16 0 0,0
19.02.2018 14:00:00 7,7 4,8 8,8 5,5 6,7 9 5 14 8 ZW 1018,6 20 0 0,0
19.02.2018 13:00:00 7,5 4,4 8,5 5,4 6,7 5 3 9 5 ZW 1019,2 20 5 0,0
19.02.2018 12:00:00 6,1 3,9 7,0 5,3 6,7 4 2 7 4 OZO 1019,7 14 0 0,0
19.02.2018 11:00:00 4,6 3,1 5,8 5,3 6,7 5 3 8 4 OZO 1019,9 10 0 0,0
19.02.2018 10:00:00 3,6 2,4 3,5 5,3 6,7 4 2 9 5 ZZO 1020,0 9 2 0,0
19.02.2018 09:00:00 2,7 1,8 2,4 5,4 6,7 6 3 11 6 ZO 1020,1 6 13 0,0
19.02.2018 08:00:00 2,4 1,8 2,3 5,4 6,7 8 4 10 6 ZO 1020,3 4,0 0 0,0
19.02.2018 07:00:00 2,3 1,9 2,2 5,5 6,7 4 2 8 5 OZO 1020,2 3,5 0 0,0
19.02.2018 06:00:00 2,3 1,9 2,1 5,5 6,7 7 4 11 6 O 1020,3 2,7 0 0,0
19.02.2018 05:00:00 2,3 1,9 2,0 5,6 6,7 6 3 12 7 OZO 1020,6 2,3 0 0,0
19.02.2018 04:00:00 2,2 1,8 1,4 5,6 6,7 9 5 12 7 O 1020,7 1,8 0 0,0
19.02.2018 03:00:00 2,3 1,7 1,7 5,6 6,6 6 3 9 5 OZO 1021,0 2,2 0 0,0
19.02.2018 02:00:00 2,6 2,0 2,1 5,7 6,7 6 3 8 5 OZO 1021,2 3,1 0 0,0
19.02.2018 01:00:00 2,8 2,4 1,7 5,8 6,6 8 4 10 6 OZO 1021,5 3,7 0 0,0
19.02.2018 00:00:00 2,7 2,3 1,0 5,8 6,6 6 4 9 5 O 1021,7 3,8 0 0,0

tt = temperatuur
td = dauwpunt
tt 5cm = temperatuur 5cm
tt -20cm = temperatuur -20cm
tt -100cm = temperatuur -100cm
ff = windsnelheid
fx = windstoten
dd = windrichting
ppp = luchtdruk
vv = zicht
sd = Zonneschijnduur
rr = neerslag

Weerstations in de omgeving